Darstellungsparameter: Aktuell verwendete Einstellungen:
Skalierung der Graphiken ... ?
xyx+y,   Skalierungsfaktor:      Skalierung: Modus: x, Faktor: 1
Darstellungszeitraum ... ?
Vom - - bis: - -   Zeitraum: 27.07.2020 - 02.08.2020
Min/Max/Avg-Anzeige ... ?
Zeige MMA aktuell
Zeige MMA Monat
Zeige MMA alles
Zeige --A aktuell
Zeige --A Monat
Zeige --A alles
Keine MMA-Anzeige
MMA:
Keine MMA-Graphiken
MMA-Basis: 27.07.2020 - 02.08.2020
Quicknavigation für Darstellung... ?
Tage:      1T, 2T, 3T, 5T -1T -2T -3T -5T +1T +2T +3T +5T
Wochen: 1W, 2W, 3W -1W -2W -3W +1W +2W +3W
Monate: 1M, 3M, 6M -1M -3M -6M +1M +3M +6M
Jahre:    1J, 3J, 5J, 10J -1J -3J -5J -10J +1J +3J +5J +10J
Nutze für die Darstellung ... ?
Originaldaten oder ...
Mittelwerte Minima Maxima auf...
Stundenbasis Tagesbasis Wochenbasis
Monatsbasis Jahresbasis      Datenbasis: Mittelwerte auf Stundenbasis
Darstellen als:
Statistik (Auto) Statistik J:M      Darstellung:
Zur Graphik,    zurück zur Übersicht aller Sensoren.
 
Tabellarische Datenbersicht: ?
 
Sensor: Nr:Datum:Temp:Abs-Feuchte:Windchill:Wind:
Aussen-T/F 1 27-07-2020 00:00:00 16.64167 C 11.32 g/m*3 16.64 C 0 km/h
2 27-07-2020 01:00:00 15.41667 C 10.75 g/m*3 15.42 C 0 km/h
3 27-07-2020 02:00:00 14.35833 C 10.49 g/m*3 14.36 C 0 km/h
4 27-07-2020 03:00:00 13.5 C 10.23 g/m*3 13.5 C 0 km/h
5 27-07-2020 04:00:00 12.85 C 10.05 g/m*3 12.85 C 0 km/h
6 27-07-2020 05:00:00 12.78333 C 10.29 g/m*3 12.78 C 0 km/h
7 27-07-2020 06:00:00 12.86667 C 10.38 g/m*3 12.87 C 0 km/h
8 27-07-2020 07:00:00 13.64167 C 10.91 g/m*3 13.64 C 0.4 km/h
9 27-07-2020 08:00:00 15.39167 C 11.63 g/m*3 15.39 C 0.13333 km/h
10 27-07-2020 09:00:00 17.2 C 12.08 g/m*3 17.2 C 1.2 km/h
11 27-07-2020 10:00:00 19.9 C 13.07 g/m*3 19.9 C 1.86667 km/h
12 27-07-2020 11:00:00 22.79167 C 13.15 g/m*3 22.79 C 2.93333 km/h
13 27-07-2020 12:00:00 24.79167 C 12.29 g/m*3 24.79 C 8.85833 km/h
14 27-07-2020 13:00:00 26.49167 C 10.93 g/m*3 26.49 C 11.425 km/h
15 27-07-2020 14:00:00 27.43333 C 11.86 g/m*3 27.43 C 10.75 km/h
16 27-07-2020 15:00:00 29.06667 C 11.53 g/m*3 29.07 C 9.95 km/h
17 27-07-2020 16:00:00 28.9 C 10.69 g/m*3 28.9 C 8.85833 km/h
18 27-07-2020 17:00:00 31.65 C 10.11 g/m*3 31.65 C 14.625 km/h
19 27-07-2020 18:00:00 31.275 C 10.1 g/m*3 31.28 C 10.48333 km/h
20 27-07-2020 19:00:00 30.54167 C 11.81 g/m*3 30.54 C 2.66667 km/h
21 27-07-2020 20:00:00 28.575 C 12.44 g/m*3 28.58 C 5.475 km/h
22 27-07-2020 21:00:00 26.09167 C 11.87 g/m*3 26.09 C 6.54167 km/h
23 27-07-2020 22:00:00 24.54167 C 11.7 g/m*3 24.54 C 3.20833 km/h
24 27-07-2020 23:00:00 23.19167 C 11.97 g/m*3 23.19 C 0 km/h
25 28-07-2020 00:00:00 21.54167 C 11.58 g/m*3 21.54 C 0 km/h
Sensor: Nr:Datum:Temp:Abs-Feuchte:Windchill:Wind:
Aussen-T/F 26 28-07-2020 01:00:00 21.90833 C 11.74 g/m*3 21.91 C 0 km/h
27 28-07-2020 02:00:00 22.19167 C 11.76 g/m*3 22.19 C 2.26667 km/h
28 28-07-2020 03:00:00 21.16667 C 11.56 g/m*3 21.17 C 1.33333 km/h
29 28-07-2020 04:00:00 20.19167 C 11.49 g/m*3 20.19 C 4.54167 km/h
30 28-07-2020 05:00:00 20.075 C 11.17 g/m*3 20.08 C 2.55 km/h
31 28-07-2020 06:00:00 19.7 C 11.65 g/m*3 19.7 C 0.26667 km/h
32 28-07-2020 07:00:00 20.35 C 12.1 g/m*3 20.35 C 2.94167 km/h
33 28-07-2020 08:00:00 21.71667 C 12.89 g/m*3 21.72 C 8.18333 km/h
34 28-07-2020 09:00:00 22.54167 C 13.35 g/m*3 22.54 C 12.9 km/h
35 28-07-2020 10:00:00 23.03333 C 12.6 g/m*3 23.03 C 16.1 km/h
36 28-07-2020 11:00:00 23.83333 C 12.19 g/m*3 23.83 C 15.83333 km/h
37 28-07-2020 12:00:00 24.425 C 11.83 g/m*3 24.43 C 16.1 km/h
38 28-07-2020 13:00:00 25.56667 C 11.07 g/m*3 25.57 C 17.96667 km/h
39 28-07-2020 14:00:00 25.93333 C 10.63 g/m*3 25.93 C 15.43333 km/h
40 28-07-2020 15:00:00 26.26667 C 10.11 g/m*3 26.27 C 13.95833 km/h
41 28-07-2020 16:00:00 27.025 C 10.14 g/m*3 27.03 C 13.96667 km/h
42 28-07-2020 17:00:00 27.4 C 9.71 g/m*3 27.4 C 15.96667 km/h
43 28-07-2020 18:00:00 27.275 C 9.56 g/m*3 27.28 C 13.56667 km/h
44 28-07-2020 19:00:00 25.625 C 9.24 g/m*3 25.63 C 15.7 km/h
45 28-07-2020 20:00:00 23.18333 C 8.9 g/m*3 23.18 C 11.56667 km/h
46 28-07-2020 21:00:00 21.01667 C 8.95 g/m*3 21.02 C 5.89167 km/h
47 28-07-2020 22:00:00 19.30833 C 9.04 g/m*3 19.31 C 4.69167 km/h
48 28-07-2020 23:00:00 18.66667 C 9.28 g/m*3 18.67 C 3.21667 km/h
49 29-07-2020 00:00:00 16.475 C 9.3 g/m*3 16.48 C 1.86667 km/h
50 29-07-2020 01:00:00 15.94167 C 9.93 g/m*3 15.94 C 3.875 km/h
Sensor: Nr:Datum:Temp:Abs-Feuchte:Windchill:Wind:
Aussen-T/F 51 29-07-2020 02:00:00 15.18333 C 9.85 g/m*3 15.18 C 3.6 km/h
52 29-07-2020 03:00:00 13.625 C 9.5 g/m*3 13.63 C 0 km/h
53 29-07-2020 04:00:00 12.425 C 9.33 g/m*3 12.43 C 1.33333 km/h
54 29-07-2020 05:00:00 11.70833 C 9.16 g/m*3 11.71 C 0.13333 km/h
55 29-07-2020 06:00:00 11.7 C 9.23 g/m*3 11.7 C 1.86667 km/h
56 29-07-2020 07:00:00 12.03333 C 9.37 g/m*3 12.03 C 3.46667 km/h
57 29-07-2020 08:00:00 13.1 C 9.79 g/m*3 13.1 C 2.53333 km/h
58 29-07-2020 09:00:00 15.5 C 10.13 g/m*3 15.5 C 3.86667 km/h
59 29-07-2020 10:00:00 18.125 C 10.03 g/m*3 18.13 C 4.95 km/h
60 29-07-2020 11:00:00 20.34167 C 9.99 g/m*3 20.34 C 8.85833 km/h
61 29-07-2020 12:00:00 21.3 C 9.69 g/m*3 21.3 C 10.225 km/h
62 29-07-2020 13:00:00 22.13333 C 9.24 g/m*3 22.13 C 9.54167 km/h
63 29-07-2020 14:00:00 23.725 C 8.96 g/m*3 23.73 C 8.46667 km/h
64 29-07-2020 15:00:00 25.4 C 8.95 g/m*3 25.4 C 8.875 km/h
65 29-07-2020 16:00:00 26.7 C 9.13 g/m*3 26.7 C 11.83333 km/h
66 29-07-2020 17:00:00 26.99167 C 9.11 g/m*3 26.99 C 10.9 km/h
67 29-07-2020 18:00:00 26.90833 C 9.22 g/m*3 26.91 C 11.03333 km/h
68 29-07-2020 19:00:00 25.675 C 9.44 g/m*3 25.68 C 10.49167 km/h
69 29-07-2020 20:00:00 23.55 C 9.46 g/m*3 23.55 C 10.89167 km/h
70 29-07-2020 21:00:00 21.25 C 9.57 g/m*3 21.25 C 2.54167 km/h
71 29-07-2020 22:00:00 18.10833 C 9.44 g/m*3 18.11 C 0.13333 km/h
72 29-07-2020 23:00:00 16.8 C 9.5 g/m*3 16.8 C 0 km/h
73 30-07-2020 00:00:00 15.30833 C 9.46 g/m*3 15.31 C 0 km/h
74 30-07-2020 01:00:00 14.05833 C 9.33 g/m*3 14.06 C 0 km/h
75 30-07-2020 02:00:00 13.23333 C 9.21 g/m*3 13.23 C 0 km/h
Sensor: Nr:Datum:Temp:Abs-Feuchte:Windchill:Wind:
Aussen-T/F 76 30-07-2020 03:00:00 12.50833 C 9.11 g/m*3 12.51 C 0 km/h
77 30-07-2020 04:00:00 11.88333 C 9 g/m*3 11.88 C 0 km/h
78 30-07-2020 05:00:00 11.425 C 8.94 g/m*3 11.43 C 0 km/h
79 30-07-2020 06:00:00 11.18333 C 8.96 g/m*3 11.18 C 0 km/h
80 30-07-2020 07:00:00 11.65833 C 9.34 g/m*3 11.66 C 0 km/h
81 30-07-2020 08:00:00 12.58333 C 9.83 g/m*3 12.58 C 0 km/h
82 30-07-2020 09:00:00 14.55833 C 10.57 g/m*3 14.56 C 0.13333 km/h
83 30-07-2020 10:00:00 18.74167 C 10.87 g/m*3 18.74 C 3.74167 km/h
84 30-07-2020 11:00:00 22.01667 C 10.68 g/m*3 22.02 C 4.80833 km/h
85 30-07-2020 12:00:00 23.54167 C 10.4 g/m*3 23.54 C 7.38333 km/h
86 30-07-2020 13:00:00 24.925 C 9.78 g/m*3 24.93 C 8.05 km/h
87 30-07-2020 14:00:00 26.43333 C 9.56 g/m*3 26.43 C 8.86667 km/h
88 30-07-2020 15:00:00 28.15833 C 9.58 g/m*3 28.16 C 9.95 km/h
89 30-07-2020 16:00:00 30.00833 C 8.9 g/m*3 30.01 C 8.475 km/h
90 30-07-2020 17:00:00 31.15833 C 8.77 g/m*3 31.16 C 6.95833 km/h
91 30-07-2020 18:00:00 31.74167 C 8.69 g/m*3 31.74 C 7.79167 km/h
92 30-07-2020 19:00:00 30.46667 C 8.63 g/m*3 30.47 C 8.61667 km/h
93 30-07-2020 20:00:00 28.75 C 9.52 g/m*3 28.75 C 3.60833 km/h
94 30-07-2020 21:00:00 24.4 C 9.9 g/m*3 24.4 C 4.26667 km/h
95 30-07-2020 22:00:00 21.8 C 9.59 g/m*3 21.8 C 2.8 km/h
96 30-07-2020 23:00:00 19.8 C 9.76 g/m*3 19.8 C 0.4 km/h
97 31-07-2020 00:00:00 18.05833 C 9.58 g/m*3 18.06 C 0 km/h
98 31-07-2020 01:00:00 16.85833 C 9.48 g/m*3 16.86 C 0 km/h
99 31-07-2020 02:00:00 15.76667 C 9.46 g/m*3 15.77 C 0 km/h
100 31-07-2020 03:00:00 14.99167 C 9.52 g/m*3 14.99 C 0 km/h
Sensor: Nr:Datum:Temp:Abs-Feuchte:Windchill:Wind:
Aussen-T/F 101 31-07-2020 04:00:00 14.15 C 9.54 g/m*3 14.15 C 0 km/h
102 31-07-2020 05:00:00 13.54167 C 9.54 g/m*3 13.54 C 0 km/h
103 31-07-2020 06:00:00 13.23333 C 9.63 g/m*3 13.23 C 0.13333 km/h
104 31-07-2020 07:00:00 13.45833 C 9.9 g/m*3 13.46 C 0 km/h
105 31-07-2020 08:00:00 14.39167 C 10.42 g/m*3 14.39 C 0.13333 km/h
106 31-07-2020 09:00:00 16.38333 C 11.11 g/m*3 16.38 C 0.4 km/h
107 31-07-2020 10:00:00 20.825 C 11.3 g/m*3 20.83 C 2.13333 km/h
108 31-07-2020 11:00:00 25.40833 C 11.05 g/m*3 25.41 C 5.90833 km/h
109 31-07-2020 12:00:00 29.4 C 10.23 g/m*3 29.4 C 14.76667 km/h
110 31-07-2020 13:00:00 30.825 C 10.49 g/m*3 30.83 C 10.1 km/h
111 31-07-2020 14:00:00 32.25833 C 10.58 g/m*3 32.26 C 8.34167 km/h
112 31-07-2020 15:00:00 34.3 C 10.32 g/m*3 34.3 C 8.46667 km/h
113 31-07-2020 16:00:00 36.68333 C 10.35 g/m*3 36.68 C 7.51667 km/h
114 31-07-2020 17:00:00 37.475 C 10.25 g/m*3 37.48 C 8.06667 km/h
115 31-07-2020 18:00:00 37.51667 C 9.71 g/m*3 37.52 C 8.2 km/h
116 31-07-2020 19:00:00 36.10833 C 10.05 g/m*3 36.11 C 5.35 km/h
117 31-07-2020 20:00:00 33.38333 C 11.38 g/m*3 33.38 C 3.73333 km/h
118 31-07-2020 21:00:00 27.14167 C 11.22 g/m*3 27.14 C 7.39167 km/h
119 31-07-2020 22:00:00 24.775 C 11.02 g/m*3 24.78 C 3.74167 km/h
120 31-07-2020 23:00:00 22.90833 C 11.18 g/m*3 22.91 C 1.73333 km/h
121 01-08-2020 00:00:00 21.03333 C 11.26 g/m*3 21.03 C 0.13333 km/h
122 01-08-2020 01:00:00 19.66667 C 11.48 g/m*3 19.67 C 0 km/h
123 01-08-2020 02:00:00 18.95 C 11.44 g/m*3 18.95 C 0.8 km/h
124 01-08-2020 03:00:00 18.31667 C 11.36 g/m*3 18.32 C 0 km/h
125 01-08-2020 04:00:00 17.65833 C 11.39 g/m*3 17.66 C 0.26667 km/h
Sensor: Nr:Datum:Temp:Abs-Feuchte:Windchill:Wind:
Aussen-T/F 126 01-08-2020 05:00:00 18.01667 C 11.66 g/m*3 18.02 C 0.8 km/h
127 01-08-2020 06:00:00 18.16667 C 11.71 g/m*3 18.17 C 0.8 km/h
128 01-08-2020 07:00:00 18.06667 C 12.13 g/m*3 18.07 C 0.4 km/h
129 01-08-2020 08:00:00 20.725 C 13.07 g/m*3 20.73 C 9.54167 km/h
130 01-08-2020 09:00:00 19.875 C 14.73 g/m*3 19.88 C 9.53333 km/h
131 01-08-2020 10:00:00 19.83333 C 15.73 g/m*3 19.83 C 2.275 km/h
132 01-08-2020 11:00:00 20.24167 C 16.52 g/m*3 20.24 C 0.13333 km/h
133 01-08-2020 12:00:00 21.00833 C 17.24 g/m*3 21.01 C 1.46667 km/h
134 01-08-2020 13:00:00 21.80833 C 17.76 g/m*3 21.81 C 1.73333 km/h
135 01-08-2020 14:00:00 23.7 C 18.36 g/m*3 23.7 C 2.93333 km/h
136 01-08-2020 15:00:00 25.79167 C 19.21 g/m*3 25.79 C 6.15833 km/h
137 01-08-2020 16:00:00 29.71667 C 18.57 g/m*3 29.72 C 6.15 km/h
138 01-08-2020 17:00:00 31.86667 C 17.35 g/m*3 31.87 C 7.10833 km/h
139 01-08-2020 18:00:00 30.9 C 17.35 g/m*3 30.9 C 5.49167 km/h
140 01-08-2020 19:00:00 27.6 C 17.56 g/m*3 27.6 C 5.75 km/h
141 01-08-2020 20:00:00 22.15 C 17.26 g/m*3 22.15 C 11.16667 km/h
142 01-08-2020 21:00:00 21.10833 C 17.45 g/m*3 21.11 C 8.59167 km/h
143 01-08-2020 22:00:00 20.9 C 17.48 g/m*3 20.9 C 8.21667 km/h
144 01-08-2020 23:00:00 20.525 C 17.11 g/m*3 20.53 C 7.11667 km/h
145 02-08-2020 00:00:00 20.11667 C 16.7 g/m*3 20.12 C 5.75 km/h
146 02-08-2020 01:00:00 20.01667 C 16.71 g/m*3 20.02 C 4.68333 km/h
147 02-08-2020 02:00:00 19.41667 C 16.03 g/m*3 19.42 C 3.075 km/h
148 02-08-2020 03:00:00 18.95 C 15.6 g/m*3 18.95 C 3.74167 km/h
149 02-08-2020 04:00:00 18.53333 C 15.27 g/m*3 18.53 C 2.93333 km/h
150 02-08-2020 05:00:00 17.55833 C 14.36 g/m*3 17.56 C 2.53333 km/h
Sensor: Nr:Datum:Temp:Abs-Feuchte:Windchill:Wind:
Aussen-T/F 151 02-08-2020 06:00:00 17.075 C 13.92 g/m*3 17.08 C 3.88333 km/h
152 02-08-2020 07:00:00 17.50833 C 14.03 g/m*3 17.51 C 1.46667 km/h
153 02-08-2020 08:00:00 18.175 C 14.59 g/m*3 18.18 C 0.4 km/h
154 02-08-2020 09:00:00 19.45833 C 14.06 g/m*3 19.46 C 3.75 km/h
155 02-08-2020 10:00:00 21.06667 C 13.56 g/m*3 21.07 C 8.6 km/h
156 02-08-2020 11:00:00 22.16667 C 13.6 g/m*3 22.17 C 8.34167 km/h
157 02-08-2020 12:00:00 22.63333 C 12.65 g/m*3 22.63 C 8.74167 km/h
158 02-08-2020 13:00:00 23.4 C 12.79 g/m*3 23.4 C 8.45833 km/h
159 02-08-2020 14:00:00 23.71667 C 12.06 g/m*3 23.72 C 10.75833 km/h
160 02-08-2020 15:00:00 24.61667 C 11.68 g/m*3 24.62 C 10.61667 km/h
161 02-08-2020 16:00:00 25.7 C 11.41 g/m*3 25.7 C 11.025 km/h
162 02-08-2020 17:00:00 26.125 C 12.05 g/m*3 26.13 C 12.9 km/h
163 02-08-2020 18:00:00 26.05833 C 11.24 g/m*3 26.06 C 11.96667 km/h
164 02-08-2020 19:00:00 25.53333 C 10.59 g/m*3 25.53 C 10.36667 km/h
165 02-08-2020 20:00:00 23.625 C 11.5 g/m*3 23.63 C 9.00833 km/h
166 02-08-2020 21:00:00 21.15833 C 11.82 g/m*3 21.16 C 3.35 km/h
167 02-08-2020 22:00:00 19.24167 C 12.11 g/m*3 19.24 C 1.46667 km/h
168 02-08-2020 23:00:00 18.98333 C 12.24 g/m*3 18.98 C 1.33333 km/h

Maximal/Minimal-Werte vom 27.07.2020 - 02.08.2020

Sensor Min Max Avg
Temp
(Aussen-T/F)
11.1 °C
30-07-2020  06:25:00
37.9 °C
31-07-2020  17:55:00
21.63 °C
Abs-Feuchte
(Aussen-T/F)
8.63 g/m*3
30-07-2020  19:00:00
19.21 g/m*3
01-08-2020  15:00:00
11.38 g/m*3
Windchill
(Aussen-T/F)
11.18 C
30-07-2020  06:00:00
37.52 C
31-07-2020  18:00:00
21.5 C

Die Daten stammen von einer Davis Vantage Pro 2 Wetter-Station und werden unter Linux mit der Software wview2wettercgi und aufbereitet. Alle Angaben erfolgen ohne Gewähr für ihre Vollständigkeit oder Richtigkeit.
Kontakt: Rainer Krienke krienke@uni-koblenz.de . Meine Webseiten an der Uni Koblenz oder privat.
Version: $Revision: 0.78 $